カタログに戻る

STARLINK-11204

運用中通信VLEO
NORAD 60931·PAYLOAD·🇺🇸 United States

打ち上げ Aug 31, 2024 から Vandenberg Space Force Base

Loading…

次のパス (今後24時間)

TLE

最新Source: CelesTrak SupGP

元期: Sep 14, 2026, 21:29 UTC

1 60931C 24155H   26257.89562500 -.00065850  00000+0 -54237-3 0  2579
2 60931  53.1565 128.3849 0001228  91.4570 187.5291 15.69744448    16

AllMySatでSTARLINK-11204をリアルタイム追跡

Download on the App Store